This is the latest recevied weather packets stored in our database for station/object N5ZP. If no packets are shown the sender has not sent any weather packets the latest 10 day(s).
| Time | Temp. | Humidity | Pressure | Rain* | Wind** | Luminosity | Snow |
|---|---|---|---|---|---|---|---|
| 1777167270 | 27.22° C | 68% | 999.1 hPa | 0 mm | - | 0 W/m² | - |
| 1777166966 | 27.22° C | 68% | 999.4 hPa | 0 mm | - | 0 W/m² | - |
| 1777166661 | 27.78° C | 68% | 999.7 hPa | 0 mm | - | 0 W/m² | - |
| 1777166357 | 27.78° C | 67% | 1000.2 hPa | 0 mm | - | 0 W/m² | - |
| 1777166053 | 27.78° C | 67% | 1000.4 hPa | 0 mm | - | 1 W/m² | - |
| 1777165751 | 27.78° C | 67% | 1000.4 hPa | 0 mm | - | 1 W/m² | - |
| 1777165448 | 27.78° C | 66% | 1000.4 hPa | 0 mm | - | 3 W/m² | - |
| 1777165143 | 27.78° C | 67% | 1000.6 hPa | 0 mm | - | 7 W/m² | - |
| 1777164838 | 27.78° C | 67% | 999.9 hPa | 0 mm | - | 11 W/m² | - |
| 1777164536 | 27.78° C | 67% | 1000.1 hPa | 0 mm | - | 13 W/m² | - |
| 1777164231 | 28.33° C | 66% | 999.8 hPa | 0 mm | - | 22 W/m² | - |
| 1777163927 | 28.33° C | 66% | 1000 hPa | 0 mm | - | 28 W/m² | - |
| 1777163626 | 28.33° C | 66% | 1000 hPa | 0 mm | - | 34 W/m² | - |
| 1777163322 | 28.33° C | 66% | 1000 hPa | 0 mm | - | 45 W/m² | - |
| 1777163018 | 28.33° C | 66% | 1000.2 hPa | 0 mm | - | 50 W/m² | - |
| 1777162714 | 28.33° C | 66% | 1000.5 hPa | 0 mm | - | 53 W/m² | - |
| 1777162414 | 28.33° C | 66% | 1000.6 hPa | 0 mm | - | 46 W/m² | - |
| 1777162113 | 28.33° C | 67% | 1000.7 hPa | 0 mm | - | 39 W/m² | - |
| 1777161809 | 28.33° C | 67% | 1000.7 hPa | 0 mm | - | 40 W/m² | - |
| 1777161507 | 28.33° C | 67% | 1000.3 hPa | 0 mm | - | 31 W/m² | - |
| 1777161202 | 28.33° C | 67% | 1000.1 hPa | 0 mm | - | 35 W/m² | - |
| 1777160898 | 28.33° C | 67% | 1000.3 hPa | 0 mm | - | 35 W/m² | - |
| 1777160594 | 28.33° C | 67% | 1000.5 hPa | 0 mm | - | 44 W/m² | - |
| 1777160290 | 28.89° C | 67% | 1000.6 hPa | 0 mm | - | 43 W/m² | - |
| 1777159986 | 28.89° C | 67% | 1000.9 hPa | 0 mm | - | 53 W/m² | - |
* Rain latest hour (hover to see other rain measurements)
** Current wind speed in m/s (hover to see current wind gust speed)